{"data":{"norad_id":62519,"intl_designator":"2025-004J","name":"STARLINK-11507 [DTC]","alt_names":[],"object_type":"PAYLOAD","status":"ACTIVE","operator":null,"country":"US","launch_date":"2025-01-08","launch_site_code":"AFETR","launch_vehicle":null,"mission":null,"orbit_class":"UNKNOWN","rcs_meters":null,"size_class":null,"mass_kg":null,"dimensions":null,"purposes":["comms"],"wikipedia_slug":null,"has_3d_model":false,"image_url":null,"decayed_at":null,"tle_current":{"epoch":"2026-09-21T12:05:01.408128Z","epoch_age_seconds":87805,"freshness":"FRESH","line1":"1 62519U 25004J   26264.50348852  .00116306  00000+0  89710-3 0  9993","line2":"2 62519  43.0006 330.5444 0001057 287.4279  72.6473 15.70844603 98007","mean_motion":15.70844603,"eccentricity":0.0001057,"inclination_deg":43.0006,"raan_deg":330.5444,"arg_perigee_deg":287.4279,"mean_anomaly_deg":72.6473,"bstar":0.0008971,"rev_number":9800,"period_min":91.670429859827,"perigee_km":355.77005614693,"apogee_km":357.19375458352,"semimajor_km":6734.6189053652,"source":"CELESTRAK","updated_at":"2026-09-22T09:00:49.623023Z"}}}